San Angelo, TX

8:45 AM CDT on April 19, 2018 (GMT -0500)
San Angelo Regional-Mathis

Weather History for KSJT - December, 2012

Change the Weather History Date:

Wednesday, December 12, 2012

  Actual Average Record
Temperature  
Mean Temperature 44 °F 47 °F  
Max Temperature 65 °F 60 °F 83 °F (1939)
Min Temperature 22 °F 34 °F 11 °F (1966)
Degree Days  
Heating Degree Days 21 18  
Month to date heating degree days 115 204  
Since 1 July heating degree days 420 604  
Cooling Degree Days 0 0  
Month to date cooling degree days 17 0  
Year to date cooling degree days 3243 2502  
Moisture  
Dew Point 17 °F    
Average Humidity 40    
Maximum Humidity 65    
Minimum Humidity 15    
Precipitation  
Precipitation 0.00 in 0.02 in 0.46 in (2015)
Month to date precipitation 0.00 0.30  
Year to date precipitation 21.78 20.70  
Snow  
Snow 0.00 in 0.00 in T in (1985)
Month to date snowfall 0.0 0.1  
Since 1 July snowfall T 0.4  
Snow Depth 0.00 in    
Sea Level Pressure  
Sea Level Pressure 30.18 in    
Wind  
Wind Speed 8 mph (SSW)    
Max Wind Speed 18 mph    
Max Gust Speed 23 mph    
Visibility 10 miles    
Events      
T = Trace of Precipitation, MM = Missing Value Source: NWS Daily Summary

Daily Weather History Graph

Daily Weather History Graph

Search for Another Location

Airport or City:

Astronomy

Dec. 12, 2012 Rise Set
Actual Time 7:31 AM CST 5:40 PM CST
Civil Twilight 7:05 AM CST 6:06 PM CST
Nautical Twilight 6:34 AM CST 6:37 PM CST
Astronomical Twilight 6:05 AM CST 7:06 PM CST
Moon 6:39 AM CST (12/12) 5:17 PM CST (12/12)
Length of Visible Light 11h 01m
Length of Day
10h 08m
Waning Crescent, 1% of the Moon is Illuminated
Dec 12
Waning Crescent
Dec 13
New
Dec 19
First Quarter
Dec 28
Full
Jan 4
Last Quarter

Hourly Weather History & Observations

Time (CST) Temp. Windchill Dew Point Humidity Pressure Visibility Wind Dir Wind Speed Gust Speed Precip Events Conditions
12:51 AM 26.1 °F 19.4 °F 14.0 °F 60% 30.19 in 10.0 mi WSW 5.8 mph - N/A   Clear
1:51 AM 28.0 °F 22.8 °F 15.1 °F 58% 30.19 in 10.0 mi SW 4.6 mph - N/A   Clear
2:51 AM 25.0 °F 19.3 °F 14.0 °F 63% 30.19 in 10.0 mi WSW 4.6 mph - N/A   Clear
3:51 AM 24.1 °F 19.7 °F 14.0 °F 65% 30.19 in 10.0 mi WSW 3.5 mph - N/A   Clear
4:51 AM 24.1 °F 18.2 °F 14.0 °F 65% 30.19 in 10.0 mi West 4.6 mph - N/A   Clear
5:51 AM 23.0 °F 17.0 °F 12.9 °F 65% 30.21 in 10.0 mi WSW 4.6 mph - N/A   Clear
6:51 AM 26.1 °F 21.9 °F 14.0 °F 60% 30.22 in 10.0 mi WNW 3.5 mph - N/A   Clear
7:51 AM 23.0 °F - 12.9 °F 65% 30.24 in 10.0 mi Calm Calm - N/A   Clear
8:51 AM 35.1 °F 31.0 °F 19.0 °F 52% 30.26 in 10.0 mi SW 4.6 mph - N/A   Clear
9:51 AM 45.0 °F - 19.9 °F 37% 30.25 in 10.0 mi Calm Calm - N/A   Clear
10:51 AM 55.0 °F - 21.0 °F 27% 30.24 in 10.0 mi SSW 13.8 mph - N/A   Clear
11:51 AM 59.0 °F - 19.0 °F 21% 30.22 in 10.0 mi South 13.8 mph - N/A   Clear
1:51 PM 63.0 °F - 18.0 °F 18% 30.14 in 10.0 mi SSW 16.1 mph - N/A   Clear
2:51 PM 64.0 °F - 17.1 °F 16% 30.12 in 10.0 mi South 13.8 mph - N/A   Clear
3:51 PM 64.0 °F - 16.0 °F 16% 30.11 in 10.0 mi South 12.7 mph - N/A   Clear
4:51 PM 63.0 °F - 16.0 °F 16% 30.11 in 10.0 mi South 8.1 mph - N/A   Clear
5:51 PM 57.9 °F - 17.1 °F 20% 30.12 in 10.0 mi South 8.1 mph - N/A   Clear
6:51 PM 48.0 °F - 16.0 °F 28% 30.15 in 10.0 mi SSW 5.8 mph - N/A   Clear
7:51 PM 46.0 °F 44.8 °F 16.0 °F 30% 30.17 in 10.0 mi South 3.5 mph - N/A   Clear
8:51 PM 45.0 °F 40.6 °F 17.1 °F 33% 30.17 in 10.0 mi South 8.1 mph - N/A   Clear
9:51 PM 48.0 °F - 18.0 °F 30% 30.17 in 10.0 mi South 9.2 mph - N/A   Clear
10:51 PM 45.0 °F 39.7 °F 19.9 °F 37% 30.17 in 10.0 mi SSW 10.4 mph - N/A   Clear
11:51 PM 46.9 °F - 21.0 °F 36% 30.17 in 10.0 mi South 8.1 mph - N/A   Clear